[keps] orb10238.2l.amsat

Ray Hoad ray.hoad at mypbmail.com
Thu Aug 26 19:26:16 PDT 2010


SB KEPS @ AMSAT  $ORB10238.N
2Line Orbital Elements 10238.AMSAT

HR AMSAT ORBITAL ELEMENTS FOR AMATEUR SATELLITES IN NASA FORMAT
FROM WA5QGD FORT WORTH,TX August 26, 2010
Send Subscribe/unsubscribe to KEPS at http://www.amsat.org/mailman/listinfo/keps
BID: ORB10238.N

DECODE 2-LINE ELSETS WITH THE FOLLOWING KEY:
1 AAAAAU 00  0  0 BBBBB.BBBBBBBB  .CCCCCCCC  00000-0  00000-0 0  DDDZ
2 AAAAA EEE.EEEE FFF.FFFF GGGGGGG HHH.HHHH III.IIII JJ.JJJJJJJJKKKKKZ
KEY: A-CATALOGNUM B-EPOCHTIME C-DECAY D-ELSETNUM E-INCLINATION F-RAAN
G-ECCENTRICITY H-ARGPERIGEE I-MNANOM J-MNMOTION K-ORBITNUM Z-CHECKSUM

TO ALL RADIO AMATEURS BT

AO-07
1 07530U 74089B   10237.63411544 -.00000027  00000-0  10000-3 0  8616
2 07530 101.4014 250.8064 0011776 136.4386 223.7615 12.53579263637157
FO-29
1 24278U 96046B   10237.91426970  .00000046  00000-0  86212-4 0 03895
2 24278 098.5164 057.4098 0349987 303.0867 053.7128 13.52952598692538
SO-33
1 25509U 98061B   10237.73353830  .00000237  00000-0  33792-4 0 07820
2 25509 031.4320 115.2359 0353899 178.0400 182.1704 14.28327624618006
RS-22
1 27939U 03042A   10238.68518352  .00000092  00000-0  26432-4 0  4864
2 27939 097.8818 101.1456 0013134 192.4727 167.6137 14.63445706369262
VO-52
1 28650U 05017B   10238.29493973 -.00000020  00000-0  39051-5 0  5828
2 28650 097.6860 288.9717 0028067 048.9705 311.3954 14.81793850287073
SO-67
1 35870U 09049F   10238.88912037  .00000659  00000-0  32719-4 0   477
2 35870 097.3261 286.1334 0002338 178.5574 182.4845 15.21018150 52208
HO-68
1 36122U 09072B   10238.85969708 -.00000045  00000-0  00000 0 0  6152
2 36122 100.4630 298.5539 0007427 172.8070 187.3142 13.16281530 33514
UO-11
1 14781U 84021B   10238.34387758 -.00000005  00000-0  64733-5 0  3230
2 14781 098.0499 290.2747 0009458 018.6746 341.4780 14.79827701422181
AO-16
1 20439U 90005D   10237.78850355  .00000009  00000-0  19145-4 0  9786
2 20439 098.3378 192.9772 0010676 325.3615 034.6876 14.31871407 75349
LO-19
1 20442U 90005G   10237.77506339 -.00000014  00000-0  10128-4 0  8877
2 20442 098.2989 198.4861 0011424 319.1499 040.8834 14.32101508 75514
AO-27
1 22825U 93061C   10237.38734964 -.00000106  00000-0 -24741-4 0 06128
2 22825 098.4898 183.5634 0009249 068.5472 291.6703 14.29305146881935
IO-26
1 22826U 93061D   10237.58038949 -.00000001  00000-0  16251-4 0 03487
2 22826 098.4836 184.3272 0009896 062.0569 298.1612 14.29562605882071
GO-32
1 25397U 98043D   10237.70316501 -.00000060  00000-0 -85807-5 0 02697
2 25397 098.3160 241.3323 0002236 072.7513 287.3918 14.23183261629939
NO-44
1 26931U 01043C   10237.74460830 -.00000222  00000-0 -54148-4 0  5411
2 26931 067.0526 024.7616 0005152 268.4335 091.6124 14.29607348464695
SO-50
1 27607U 02058C   10237.73422516  .00000006  00000-0  22602-4 0  2535
2 27607 064.5583 145.2736 0038915 045.5787 314.8487 14.71567862412611
CO-55
1 27844U 03031E   10238.52170270  .00000049  00000-0  42907-4 0  9214
2 27844 098.7111 246.4912 0009778 334.7334 025.3364 14.20725340371079
CO-57
1 27848U 03031J   10237.57547667  .00000039  00000-0  38423-4 0  8687
2 27848 098.7164 244.6655 0009948 341.3497 018.7311 14.20516514370896
AO-51
1 28375U 04025K   10237.53086963  .00000026  00000-0  20714-4 0 07588
2 28375 098.0674 227.0973 0082864 247.2928 111.9490 14.40695870323493
GENESAT1
1 29655U 06058C   10216.61700559  .10637092  69904-5  33715-3 0  2265
2 29655 040.0059 067.3006 0005079 297.8744 064.7087 16.44862838207776
CP3
1 31129U 07012N   10237.66511142  .00000447  00000-0  11330-3 0 06628
2 31129 097.9342 273.5010 0102906 019.1189 341.3815 14.52296056177940
CO-65
1 32785U 08021C   10238.66805290 -.00000026  00000-0  33695-5 0  7679
2 32785 097.8914 302.5997 0015947 057.7690 302.5080 14.81701655125925
KKS-1
1 33493U 09002B   10238.85556688  .00000389  00000-0  57139-4 0  7940
2 33493 098.0921 358.9790 0018606 273.0474 086.8621 14.81074751 85947
SOHLA-1
1 33496U 09002E   10237.74995306  .00000091  00000-0  23681-4 0 01875
2 33496 098.0638 345.9397 0006431 352.1087 008.0027 14.69510922085099
TISAT-1
1 36799U 10035E   10238.69839207  .00000279  00000-0  43927-4 0   641
2 36799 098.1422 298.5007 0016303 144.2244 216.0002 14.80150357  6749
STUDSAT
1 36801U 10035G   10237.90438441  .00000801  00000-0  11397-3 0 00784
2 36801 098.1453 297.6512 0014774 134.7555 225.4857 14.79605380006625
NOAA-10
1 16969U 86073A   10237.68843933  .00000054  00000-0  39856-4 0 01808
2 16969 098.6534 265.9919 0012633 012.8942 347.2570 14.27425069245492
NOAA-11
1 19531U 88089A   10237.82326346 -.00000221  00000-0 -91918-4 0 01923
2 19531 098.7689 325.6596 0011042 313.3440 046.6808 14.14932081130986
NOAA-12
1 21263U 91032A   10237.90280404  .00000025  00000-0  29612-4 0 06830
2 21263 098.7649 251.0552 0011941 328.5880 031.4574 14.25650221002339
MET-3/5
1 21655U 91056A   10237.61573699  .00000051  00000-0  10000-3 0 08987
2 21655 082.5539 259.5805 0013588 169.8507 190.2850 13.17025045914814
MET-2/21
1 22782U 93055A   10237.42326421 -.00000023  00000-0 -34579-4 0 08673
2 22782 082.5470 197.5099 0021533 204.7679 155.2443 13.83646354857656
OKEAN-4
1 23317U 94066A   10237.75849576  .00000069  00000-0  55618-5 0  3219
2 23317 082.5400 288.9262 0022711 017.4056 342.7931 14.82850547856765
NOAA-14
1 23455U 94089A   10237.71024022 -.00000050  00000-0 -27842-5 0 01739
2 23455 098.8750 317.9585 0010057 042.6016 317.5939 14.13791812807322
NOAA-15
1 25338U 98030A   10237.53429195 -.00000058  00000-0 -62125-5 0 04971
2 25338 098.6245 223.2361 0009815 229.8776 130.1532 14.24850193638627
RESURS
1 25394U 98043A   10238.74312747 -.00000005  00000-0  15466-4 0  5871
2 25394 098.3052 252.9820 0002268 039.6861 320.4471 14.24208300630397
FENGYUN1
1 25730U 99025A   10237.50959298  .00000687  00000-0  42613-3 0  1208
2 25730 098.7889 200.6669 0023428 069.0186 291.3480 14.08260895581448
OKEAN-0
1 25860U 99039A   10238.69252141  .00000032  00000-0  12215-4 0   828
2 25860 097.8398 209.0227 0000893 106.8830 253.2469 14.73657294597285
NOAA-16
1 26536U 00055A   10237.57098825 -.00000261  00000-0 -11582-3 0 09754
2 26536 099.1700 256.6725 0011109 139.2429 220.9577 14.12572112511628
NOAA-17
1 27453U 02032A   10237.69024312 -.00000075  00000-0 -14426-4 0 09689
2 27453 098.4256 285.3148 0010816 296.4925 063.5148 14.24183271424595
NOAA-18
1 28654U 05018A   10237.70383718  .00000127  00000-0  95069-4 0 04548
2 28654 098.9535 183.7820 0013674 214.9924 145.0352 14.11381840271244
NOAA-19
1 33591U 09005A   10237.70707380 -.00000185  00000-0 -78481-4 0 06524
2 33591 098.7909 178.3603 0015167 091.7495 268.5415 14.11076178079719
HUBBLE
1 20580U 90037B   10238.12944327  .00000409  00000-0  18407-4 0  6343
2 20580 028.4677 143.2399 0003640 221.6409 138.3923 15.01021892915271
ISS
1 25544U 98067A   10238.83028510  .00011443  00000-0  92801-4 0  7761
2 25544 051.6453 229.1315 0007611 298.4323 130.7842 15.71273119674587
CO-58
1 28895U 05043F   10238.23310128  .00000060  00000-0  21909-4 0  6659
2 28895 098.0049 120.3534 0019096 066.8453 293.4740 14.59923853257203
FALCON
1 30776U 07006E   10238.66029448  .00000635  00000-0  48351-4 0  9000
2 30776 035.4348 336.4022 0001066 013.2516 346.8228 15.03781811190674
MAST
1 31126U 07012K   10238.57179781  .00000124  00000-0  38399-4 0  9478
2 31126 097.9323 276.9245 0095221 007.9568 352.3148 14.53613809178289
CAPE1
1 31130U 07012P   10237.65793534  .00000213  00000-0  59653-4 0 09698
2 31130 097.9339 273.3307 0103068 019.4341 341.0728 14.52213558177742
COMPASS
1 32787U 08021E   10238.66109067  .00000166  00000-0  27648-4 0  7595
2 32787 097.8889 302.4299 0016776 058.0344 302.2531 14.81945686125936
AAUSAT2
1 32788U 08021F   10237.64456081  .00000331  00000-0  48203-4 0 07510
2 32788 097.8889 301.5701 0016592 062.0672 298.2192 14.82092659125795
DO-64
1 32789U 08021G   10238.65853929  .00000509  00000-0  70263-4 0  7692
2 32789 097.8972 303.1267 0016534 058.2878 301.9959 14.82272690125940
CO-66
1 32791U 08021J   10237.14032631  .00000477  00000-0  67072-4 0 07527
2 32791 097.8919 300.9384 0017170 061.9043 298.3957 14.81720012125662
RS-30
1 32953U 08025A   10238.71839344  .00000010  00000-0  00000 0 0  9877
2 32953 082.5057 345.8182 0017828 310.9199 049.0334 12.43007448102504
TACSAT-3
1 35001U 09028A   10237.92207592  .00004274  00000-0  10122-3 0 03830
2 35001 040.4561 155.0297 0020491 171.6889 188.4273 15.42433977071406
PHARMSAT
1 35002U 09028B   10237.91819771  .00003821  00000-0  89535-4 0  3469
2 35002 040.4678 152.8263 0023554 173.9066 186.2053 15.42890950 71421
HAWKSAT1
1 35003U 09028C   10237.93239047  .00008840  00000-0  17603-3 0 03837
2 35003 040.4590 145.3319 0021493 194.2274 165.7997 15.46646624071511
CP6
1 35004U 09028D   10237.95140227  .00011169  00000-0  21299-3 0 03699
2 35004 040.4619 143.6918 0020736 197.9064 162.1045 15.47729921071525
AEROCUB3
1 35005U 09028E   10238.80122311  .00044611  00000-0  61190-3 0  4221
2 35005 040.4696 131.8709 0020482 229.7264 130.2227 15.56264430 71732
CASTOR
1 35694U 09038F   10230.44082147  .07179566  12689-4  99310-4 0  6559
2 35694 051.5930 222.0149 0004218 308.0851 053.0105 16.48877011 61107
METEOR-M
1 35865U 09049A   10238.71702756  .00000176  00000-0  10000-3 0  5970
2 35865 098.7525 291.9898 0002519 140.3948 219.7366 14.21831230 48749
RS-38
1 35869U 09049E   10238.68086089  .00000177  00000-0  10000-3 0  6099
2 35869 098.7515 291.9912 0004740 152.8299 207.3085 14.21987201 48745
/EX




More information about the Keps mailing list